Location: Caltech
(34.1382°N, 118.1253°W)
Time: 14:59:58
(UTC-07:00)

A-11 Canister half - All Passes

Search period start: 25 July 2016 00:00
Search period end: 04 August 2016 00:00
Orbit: 1517 x 1683 km, 47.2° (Epoch: 24 July)

Date Brightness Start Highest point End Pass type
(mag) Time Alt. Az. Time Alt. Az. Time Alt. Az.
25 Jul - 09:46:28 10° S 09:54:51 32° SE 10:03:23 10° ENE daylight
25 Jul - 11:49:07 10° SW 11:59:12 83° NW 12:09:27 10° NE daylight
25 Jul - 13:55:57 10° W 14:05:27 43° NNW 14:14:58 10° ENE daylight
25 Jul - 16:03:13 10° WNW 16:12:45 42° NNE 16:22:06 10° E daylight
25 Jul - 18:08:49 10° NW 18:19:00 82° NE 18:28:50 10° ESE daylight
25 Jul - 20:14:54 10° WNW 20:23:18 32° SW 20:31:28 10° S visible
26 Jul - 09:23:53 10° S 09:32:00 30° SE 09:40:15 10° ENE daylight
26 Jul - 11:26:12 10° SW 11:36:15 87° NW 11:46:29 10° NE daylight
26 Jul - 13:32:51 10° W 13:42:24 44° NNW 13:51:58 10° NE daylight
26 Jul - 15:40:13 10° WNW 15:49:42 42° N 15:59:02 10° E daylight
26 Jul - 17:45:52 10° NW 17:56:03 79° NE 18:05:55 10° ESE daylight
26 Jul - 19:51:48 10° WNW 20:00:27 35° SW 20:08:52 10° S daylight
27 Jul - 09:01:20 10° S 09:09:09 27° SE 09:17:06 10° ENE daylight
27 Jul - 11:03:17 10° SW 11:13:18 89° SE 11:23:32 10° NE daylight
27 Jul - 13:09:47 10° W 13:19:20 45° NNW 13:28:58 10° NE daylight
27 Jul - 15:17:11 10° WNW 15:26:38 41° N 15:35:59 10° ENE daylight
27 Jul - 17:22:54 10° NW 17:33:06 75° NNE 17:42:58 10° ESE daylight
27 Jul - 19:28:43 10° WNW 19:37:36 37° SW 19:46:14 10° SSE daylight
28 Jul - 08:38:49 10° S 08:46:19 25° SE 08:53:56 10° ENE daylight
28 Jul - 10:40:23 10° SW 10:50:21 85° SE 11:00:35 10° NE daylight
28 Jul - 12:46:43 10° W 12:56:18 46° NNW 13:05:59 10° NE daylight
28 Jul - 14:54:09 10° WNW 15:03:35 40° N 15:12:54 10° ENE daylight
28 Jul - 16:59:57 10° NW 17:10:08 72° NNE 17:20:01 10° ESE daylight
28 Jul - 19:05:40 10° WNW 19:14:45 40° SW 19:23:35 10° SSE daylight
29 Jul - 08:16:21 10° S 08:23:29 23° SE 08:30:43 10° ENE daylight
29 Jul - 10:17:29 10° SW 10:27:25 81° SE 10:37:37 10° NE daylight
29 Jul - 12:23:38 10° W 12:33:16 47° NNW 12:42:59 10° NE daylight
29 Jul - 14:31:07 10° WNW 14:40:31 40° N 14:49:50 10° ENE daylight
29 Jul - 16:36:59 10° NW 16:47:09 69° NNE 16:57:03 10° ESE daylight
29 Jul - 18:42:36 10° WNW 18:51:53 43° SW 19:00:54 10° SSE daylight
30 Jul - 07:53:56 10° SSE 08:00:39 21° SE 08:07:27 10° E daylight
30 Jul - 09:54:37 10° SW 10:04:30 77° SE 10:14:39 10° NE daylight
30 Jul - 12:00:35 10° W 12:10:14 49° NNW 12:20:01 10° NE daylight
30 Jul - 14:08:04 10° WNW 14:17:27 39° N 14:26:47 10° ENE daylight
30 Jul - 16:14:02 10° NW 16:24:10 66° NNE 16:34:04 10° ESE daylight
30 Jul - 18:19:35 10° WNW 18:29:01 46° SW 18:38:11 10° SSE daylight
31 Jul - 07:31:36 10° SSE 07:37:49 19° ESE 07:44:09 10° E daylight
31 Jul - 09:31:46 10° SW 09:41:35 73° SE 09:51:41 10° ENE daylight
31 Jul - 11:37:32 10° W 11:47:12 50° NNW 11:57:02 10° NE daylight
31 Jul - 13:45:02 10° WNW 13:54:23 39° N 14:03:42 10° ENE daylight
31 Jul - 15:51:05 10° NW 16:01:11 63° NNE 16:11:05 10° ESE daylight
31 Jul - 17:56:34 10° WNW 18:06:08 50° SW 18:15:28 10° SSE daylight
01 Aug - 07:09:19 10° SSE 07:15:00 17° ESE 07:20:46 10° E daylight
01 Aug - 09:08:56 10° SW 09:18:40 69° SE 09:28:42 10° ENE daylight
01 Aug - 11:14:30 10° W 11:24:11 52° NNW 11:34:03 10° NE daylight
01 Aug - 13:22:00 10° WNW 13:31:19 39° N 13:40:38 10° ENE daylight
01 Aug - 15:28:07 10° NW 15:38:12 61° NNE 15:48:04 10° ESE daylight
01 Aug - 17:33:33 10° WNW 17:43:15 53° SW 17:52:43 10° SSE daylight
01 Aug - 19:45:13 10° WSW 19:46:38 10° WSW 19:48:03 10° SW daylight
02 Aug - 06:47:09 10° SSE 06:52:11 15° ESE 06:57:17 10° E daylight
02 Aug - 08:46:08 10° SW 08:55:46 65° SE 09:05:44 10° ENE daylight
02 Aug - 10:51:28 10° W 11:01:10 54° NNW 11:11:05 10° NE daylight
02 Aug - 12:58:57 10° WNW 13:08:15 39° N 13:17:33 10° ENE daylight
02 Aug - 15:05:09 10° NW 15:15:11 58° NNE 15:25:04 10° ESE daylight
02 Aug - 17:10:33 10° WNW 17:20:22 57° SW 17:29:57 10° SSE daylight
02 Aug - 19:20:34 10° W 19:23:49 12° WSW 19:27:03 10° SW daylight
03 Aug - 06:25:08 10° SSE 06:29:22 14° ESE 06:33:40 10° E daylight
03 Aug - 08:23:20 10° SSW 08:32:52 61° SE 08:42:45 10° ENE daylight
03 Aug - 10:28:26 10° WSW 10:38:09 55° NNW 10:48:06 10° NE daylight
03 Aug - 12:35:54 10° WNW 12:45:10 39° N 12:54:30 10° ENE daylight
03 Aug - 14:42:11 10° NW 14:52:11 56° NNE 15:02:02 10° ESE daylight
03 Aug - 16:47:33 10° WNW 16:57:28 61° SW 17:07:09 10° SSE daylight
03 Aug - 18:56:41 10° W 19:01:00 14° WSW 19:05:18 10° SSW daylight
